Location: Newark
(15.4608°S, 41.1635°W)
Time: 22:16:44
(UTC+00:00)

Envisat - Pass Details

Date: 11 December 2019
Orbit: 764 x 766 km, 98.1° (Epoch: 28 January)

Event Time Altitude Azimuth Distance (km) Brightness Sun altitude
Rises 21:41:36 0° 179° (S) 3,245 6.6 -8.0°
Reaches altitude 10° 21:44:00 10° 185° (S) 2,314 5.9 -8.5°
Maximum altitude 21:48:50 45° 256° (WSW) 1,045 4.3 -9.5°
Drops below altitude 10° 21:53:38 10° 328° (NNW) 2,295 5.5 -10.6°
Sets 21:56:01 0° 334° (NNW) 3,215 6.2 -11.1°
